This demonstration page uses our WeatherBlox Daily Observations layout. Learn more.

Left ArrowRight Arrow

44.8408, -93.29828

Hourly Observations for March 27, 2016

Temp ( °F °C ) Dew Point ( °F °C ) Humidity (%) Winds ( mph kmh ) Pressure ( in mb ) Visibility ( mi km ) Precip ( " mm )
12:53 am 00:53 Cloudy with Light Rain 43 6.1 39 3.9 86 86 ENE 6 9 30.01 1016 6 10 0.01 0.25
1:53 am 01:53 Cloudy with Mist and Fog 42 5.6 39 3.9 89 89 NNE 6 9 29.99 1016 6 10 0.00 0.03
2:53 am 02:53 Cloudy 42 5.6 39 3.9 89 89 N 6 9 29.98 1015 7 11 0.00 0.00
3:53 am 03:53 Cloudy with Light Rain 40 4.4 39 3.9 97 97 N 8 13 29.97 1015 5 8 0.01 0.25
3:55 am 03:55 Cloudy with Light Rain 40 4.4 38 3.3 93 93 NNW 8 13 29.97 1015 5 8 0.00 0.03
4:53 am 04:53 Cloudy with Light Rain 39 3.9 37 2.8 93 93 NNW 10 17 29.96 1015 5 8 0.03 0.76
5:53 am 05:53 Cloudy with Light Rain 38 3.3 36 2.2 93 93 NNW 10 17 29.96 1014 9 14 0.02 0.51
6:31 am 06:31 Cloudy with Light Rain 37 2.8 35 1.7 93 93 NNW 9 15 30.00 1016 10 16 0.01 0.25
6:53 am 06:53 Cloudy with Light Rain 37 2.8 35 1.7 93 93 NNW 12 19 29.98 1015 10 16 0.01 0.25
7:20 am 07:20 Cloudy with Light Rain 36 2 36 2 100 100 NNW 10 17 30.00 1016 10 16 0.00 0.00
7:42 am 07:42 Cloudy with Light Rain 36 2.2 35 1.7 97 97 NW 10 17 30.00 1016 10 16 0.00 0.03
7:53 am 07:53 Cloudy with Light Rain 36 2.2 34 1.1 93 93 NW 12 19 29.98 1015 10 16 0.00 0.03
8:53 am 08:53 Cloudy 36 2.2 34 1.1 93 93 NNW 9 15 29.99 1016 10 16 0.00 0.03
9:53 am 09:53 Cloudy 36 2.2 34 1.1 93 93 NW 12 19 30.01 1016 10 16 0.00 0.00
10:53 am 10:53 Cloudy 38 3.3 35 1.7 89 89 NW 7 11 30.01 1016 10 16 0.00 0.00
11:08 am 11:08 Cloudy 39 4 36 2 87 87 NNW 8 13 30.03 1017 10 16 0.00 0.00
11:40 am 11:40 Cloudy 39 4 36 2 87 87 NW 14 22 30.03 1017 10 16 0.00 0.00
11:53 am 11:53 Cloudy 40 4.4 35 1.7 83 83 NW 13 20 30.00 1016 10 16 0.00 0.00
12:53 pm 12:53 Cloudy 39 3.9 34 1.1 82 82 NW 13 20 30.01 1016 10 16 0.00 0.00
1:53 pm 13:53 Cloudy 41 5 34 1.1 76 76 NNW 13 20 30.01 1016 10 16 0.00 0.00
2:53 pm 14:53 Cloudy 41 5 34 1.1 76 76 N 10 17 30.00 1016 10 16 0.00 0.00
3:53 pm 15:53 Cloudy 42 5.6 33 0.6 71 71 NNW 8 13 30.00 1016 10 16 0.00 0.00
4:53 pm 16:53 Cloudy 42 5.6 33 0.6 71 71 WNW 10 17 30.01 1016 10 16 0.00 0.00
5:53 pm 17:53 Cloudy 41 5 32 0 70 70 NW 13 20 30.02 1017 10 16 0.00 0.00
6:53 pm 18:53 Mostly Cloudy 41 5 31 -0.6 67 67 N 7 11 30.03 1017 10 16 0.00 0.00
7:10 pm 19:10 Partly Cloudy 41 5 30 -1 66 66 NNE 7 11 30.00 1016 10 16 0.00 0.00
7:53 pm 19:53 Mostly Clear 39 3.9 29 -1.7 67 67 VRB 5 7 30.04 1017 10 16 0.00 0.00
8:53 pm 20:53 Clear 37 2.8 29 -1.7 73 73 NNE 5 7 30.05 1018 10 16 0.00 0.00
9:53 pm 21:53 Clear 36 2.2 30 -1.1 79 79 NE 5 7 30.05 1018 10 16 0.00 0.00
10:53 pm 22:53 Clear 34 1.1 29 -1.7 82 82 NE 3 6 30.06 1018 10 16 0.00 0.00
11:53 pm 23:53 Clear 33 0.6 29 -1.7 85 85 Calm 30.07 1018 10 16 0.00 0.00

Powered by AerisWeather